Location: Miles
(41.4492°N, 81.6087°W)
Time: 16:17:57
(UTC+00:00)

Vanguard 1 Rocket - Pass Details

Date: 15 September 2024
Orbit: 650 x 4218 km, 34.3° (Epoch: 07 October)

Event Time Altitude Azimuth Distance (km) Brightness Sun altitude
Rises 07:46:46 0° 216° (SW) 4,956 - -34.8°
Reaches altitude 10° 07:49:40 10° 209° (SSW) 4,340 - -34.4°
Exits shadow 07:56:36 35° 179° (S) 3,524 10.0 -33.5°
Maximum altitude 08:01:36 43° 143° (SE) 3,672 10.3 -32.8°
Drops below altitude 10° 08:21:54 10° 81° (E) 7,179 12.7 -29.8°
Sets 08:28:29 0° 77° (ENE) 8,413 13.4 -28.8°
